Miscellaneous Local Product
Issued by NWS Hastings, NE

Home | Current Version | Previous Version | Graphics & Text | Print | Product List | Glossary On
Versions: 1 2 3 4 5 6 7 8 9 10 11 12 13 14 15 16 17 18 19 20 21 22 23 24 25 26 27 28 29 30 31 32 33 34 35 36 37 38 39 40 41 42 43 44 45 46 47 48 49 50
000
AXUS43 KGID 190302
MISGRI

GID CWA HOURLY WEATHER ROUNDUP
NATIONAL WEATHER SERVICE HASTINGS NE
1000 PM CDT MON AUG 18 2014

NOTE: "FAIR" INDICATES FEW OR NO CLOUDS BELOW 12,000 FEET WITH NO
SIGNIFICANT WEATHER AND/OR OBSTRUCTIONS TO VISIBILITY.

...SOUTH CENTRAL NEBRASKA...

CITY           SKY/WX    TMP DP  RH WIND       PRES   REMARKS
GRAND ISLAND   MOCLDY    74  70  87 S3        29.86S
HASTINGS       MOCLDY    76  67  73 CALM      29.86S
KEARNEY        CLOUDY    73  70  88 NE6       29.87S
ORD            CLOUDY    72  69  90 CALM      29.85R
AURORA         PTCLDY    73  72  98 CALM      29.86S
LEXINGTON      CLOUDY    73  70  89 SW3       29.88R
HOLDREGE       CLOUDY    74  69  84 NE6       29.87S
HEBRON         PTCLDY    72  69  88 CALM      29.83S

...NEBRASKA PANHANDLE...

CITY           SKY/WX    TMP DP  RH WIND       PRES   REMARKS
CHADRON        CLEAR     75  55  49 E8        29.93S
ALLIANCE       PTCLDY    64  58  80 SW10      29.98R
SCOTTSBLUFF    CLEAR     70  60  70 E6        29.96R
SIDNEY         CLOUDY    66  54  65 E7        29.98F

...WESTERN AND NORTH CENTRAL NEBRASKA...

CITY           SKY/WX    TMP DP  RH WIND       PRES   REMARKS
VALENTINE      CLEAR     71  57  61 E3        29.91R
AINSWORTH      CLEAR     68  59  73 N8        29.91R
ONEILL         MOCLDY    70  63  78 N7        29.87S
BROKEN BOW     MOCLDY    70  67  90 CALM      29.88S
IMPERIAL       CLOUDY    70  56  61 S10       29.89F
NORTH PLATTE   CLOUDY    70  65  84 E3        29.90R
MCCOOK         CLOUDY    76  66  71 NE7       29.88F

...EASTERN NEBRASKA...

CITY           SKY/WX    TMP DP  RH WIND       PRES   REMARKS
NORFOLK        PTCLDY    72  67  84 SW5       29.82R
SO SIOUX CITY  CLEAR     75  68  78 W7        29.79R
TEKAMAH        CLEAR     72  68  87 SW7       29.79R
COLUMBUS       MOCLDY    75  70  83 SW6       29.84R
ALBION         MOCLDY    74  67  79 CALM      29.84S
OMAHA EPPLEY   PTCLDY    83  67  58 S3        29.80R
OFFUTT AFB     CLEAR     75  74  98 SW3       29.80R
MILLARD        CLEAR     80  69  68 W3        29.81R
LINCOLN        PTCLDY    79  70  74 CALM      29.82R
NEBRASKA CITY  CLEAR     74  69  84 SW5       29.82R
BEATRICE       PTCLDY    76  71  85 CALM      29.82S
FALLS CITY     CLEAR     76  72  87 SE3       29.80R

...NORTHERN KANSAS...

CITY           SKY/WX    TMP DP  RH WIND       PRES   REMARKS
GOODLAND       CLOUDY    75  55  49 S6        29.97R
HILL CITY      CLOUDY    81  68  64 SW9       29.85R
NORTON         PTCLDY    73  64  73 S5G12     29.91R
PHILLIPSBURG   PTCLDY    81  66  61 NE9       29.83S
BELOIT         CLEAR     77  72  83 NE5       29.79S
HAYS           CLOUDY    84  68  58 SE15      29.82F
RUSSELL        CLOUDY    83  68  60 SE9       29.80S
CONCORDIA      MOCLDY    76  73  91 NE5       29.81R
SALINA         CLOUDY    80  72  76 S7        29.80R
TOPEKA         CLEAR     79  72  79 CALM      29.80S



USA.gov is the U.S. government's official web portal to all federal, state and local government web resources and services.